Weather reports worldwide

Advertisment
Albacete/Los Llanos, Spain (8280): temperature & dewpoint: 20.09.2018 05:00:00 - 26.09.2018 05:00:00 (CEST)Albacete/Los Llanos, Spain (8280): wind speed: 20.09.2018 05:00:00 - 26.09.2018 05:00:00 (CEST)Albacete/Los Llanos, Spain (8280): wind direction: 20.09.2018 05:00:00 - 26.09.2018 05:00:00 (CEST)Albacete/Los Llanos, Spain (8280): reduced air pressure: 20.09.2018 05:00:00 - 26.09.2018 05:00:00 (CEST)Albacete/Los Llanos, Spain (8280): visibility: 20.09.2018 05:00:00 - 26.09.2018 05:00:00 (CEST)
Date & Time tt [°C] td [°C] ff [km/h] ff [kn] dd ppp [hPa] vv [km]
26.09.2018 05:00:00 17,8 15,1 16 9 ESE 1025,2 30
26.09.2018 04:00:00 - - - - - - -
26.09.2018 03:00:00 - - - - - - -
26.09.2018 02:00:00 18,2 15,8 16 9 SE 1025,0 30
26.09.2018 01:00:00 - - - - - - -
26.09.2018 00:00:00 - - - - - - -
25.09.2018 23:00:00 19,0 15,9 15 8 ESE 1024,2 30
25.09.2018 22:00:00 - - - - - - -
25.09.2018 21:00:00 - - - - - - -
25.09.2018 20:00:00 21,4 16,1 22 12 ESE 1021,4 20
25.09.2018 19:00:00 - - - - - - -
25.09.2018 18:00:00 - - - - - - -
25.09.2018 17:00:00 27,8 14,8 16 9 SE 1018,4 20
25.09.2018 16:00:00 - - - - - - -
25.09.2018 15:00:00 - - - - - - -
25.09.2018 14:00:00 25,9 14,4 16 9 SE 1020,7 20
25.09.2018 13:00:00 - - - - - - -
25.09.2018 12:00:00 - - - - - - -
25.09.2018 11:00:00 22,9 16,0 9 5 SE 1022,3 20
25.09.2018 10:00:00 - - - - - - -
25.09.2018 09:00:00 - - - - - - -
25.09.2018 08:00:00 18,4 16,6 11 6 ESE 1021,9 8
25.09.2018 07:00:00 - - - - - - -
25.09.2018 06:00:00 - - - - - - -
25.09.2018 05:00:00 18,7 16,8 9 5 E 1021,3 15
25.09.2018 04:00:00 - - - - - - -
25.09.2018 03:00:00 - - - - - - -
25.09.2018 02:00:00 19,8 16,1 11 6 SE 1021,0 20
25.09.2018 01:00:00 - - - - - - -
25.09.2018 00:00:00 - - - - - - -
24.09.2018 23:00:00 22,6 12,8 9 5 SSE 1020,0 20
24.09.2018 22:00:00 - - - - - - -
24.09.2018 21:00:00 - - - - - - -
24.09.2018 20:00:00 27,6 12,0 9 5 ENE 1016,7 30
24.09.2018 19:00:00 - - - - - - -
24.09.2018 18:00:00 - - - - - - -
24.09.2018 17:00:00 32,6 10,6 8 4 W 1015,6 30
24.09.2018 16:00:00 - - - - - - -
24.09.2018 15:00:00 - - - - - - -
24.09.2018 14:00:00 30,2 12,1 5 3 N 1018,6 30
24.09.2018 13:00:00 - - - - - - -
24.09.2018 12:00:00 - - - - - - -
24.09.2018 11:00:00 23,9 13,4 0 0 N 1021,3 30
24.09.2018 10:00:00 - - - - - - -
24.09.2018 09:00:00 - - - - - - -
24.09.2018 08:00:00 15,7 12,5 8 4 SW 1022,4 30
24.09.2018 07:00:00 - - - - - - -
24.09.2018 06:00:00 - - - - - - -
24.09.2018 05:00:00 18,5 12,7 11 6 NE 1021,2 30
24.09.2018 04:00:00 - - - - - - -
24.09.2018 03:00:00 - - - - - - -
24.09.2018 02:00:00 20,6 12,1 9 5 SSE 1021,0 30
24.09.2018 01:00:00 - - - - - - -
24.09.2018 00:00:00 - - - - - - -
23.09.2018 23:00:00 23,0 11,1 8 4 SSE 1020,4 30
23.09.2018 22:00:00 - - - - - - -
23.09.2018 21:00:00 - - - - - - -
23.09.2018 20:00:00 26,6 14,4 5 3 SSW 1018,6 30
23.09.2018 19:00:00 - - - - - - -
23.09.2018 18:00:00 - - - - - - -
23.09.2018 17:00:00 31,5 10,2 5 3 N 1017,8 25
23.09.2018 16:00:00 - - - - - - -
23.09.2018 15:00:00 - - - - - - -
23.09.2018 14:00:00 29,9 13,2 5 3 WSW 1019,9 25
23.09.2018 13:00:00 - - - - - - -
23.09.2018 12:00:00 - - - - - - -
23.09.2018 11:00:00 23,7 15,2 2 1 N 1022,5 30
23.09.2018 10:00:00 - - - - - - -
23.09.2018 09:00:00 - - - - - - -
23.09.2018 08:00:00 17,1 14,6 8 4 SSW 1023,2 25
23.09.2018 07:00:00 - - - - - - -
23.09.2018 06:00:00 - - - - - - -
23.09.2018 05:00:00 18,7 15,0 9 5 SSE 1022,2 30
23.09.2018 04:00:00 - - - - - - -
23.09.2018 03:00:00 - - - - - - -
23.09.2018 02:00:00 20,5 15,5 8 4 SE 1022,4 30
23.09.2018 01:00:00 - - - - - - -
23.09.2018 00:00:00 - - - - - - -
22.09.2018 23:00:00 23,0 14,3 11 6 S 1021,6 30
22.09.2018 22:00:00 - - - - - - -
22.09.2018 21:00:00 - - - - - - -
22.09.2018 20:00:00 26,9 14,0 8 4 S 1019,3 30
22.09.2018 19:00:00 - - - - - - -
22.09.2018 18:00:00 - - - - - - -
22.09.2018 17:00:00 31,4 11,2 9 5 W 1018,2 30
22.09.2018 16:00:00 - - - - - - -
22.09.2018 15:00:00 - - - - - - -
22.09.2018 14:00:00 30,1 12,5 8 4 WSW 1019,8 30
22.09.2018 13:00:00 - - - - - - -
22.09.2018 12:00:00 - - - - - - -
22.09.2018 11:00:00 24,7 16,4 4 2 N 1021,6 30
22.09.2018 10:00:00 - - - - - - -
22.09.2018 09:00:00 - - - - - - -
22.09.2018 08:00:00 16,7 15,7 5 3 SW 1022,3 10
22.09.2018 07:00:00 - - - - - - -
22.09.2018 06:00:00 - - - - - - -
22.09.2018 05:00:00 19,3 16,2 4 2 S 1020,2 20
22.09.2018 04:00:00 - - - - - - -
22.09.2018 03:00:00 - - - - - - -
22.09.2018 02:00:00 19,6 16,3 8 4 SSE 1020,3 30
22.09.2018 01:00:00 - - - - - - -
22.09.2018 00:00:00 - - - - - - -
21.09.2018 23:00:00 22,2 13,8 4 2 N 1019,0 30
21.09.2018 22:00:00 - - - - - - -
21.09.2018 21:00:00 - - - - - - -
21.09.2018 20:00:00 25,7 12,9 5 3 S 1016,1 30
21.09.2018 19:00:00 - - - - - - -
21.09.2018 18:00:00 - - - - - - -
21.09.2018 17:00:00 31,8 11,0 5 3 N 1014,3 30
21.09.2018 16:00:00 - - - - - - -
21.09.2018 15:00:00 - - - - - - -
21.09.2018 14:00:00 29,1 14,1 5 3 N 1016,2 30
21.09.2018 13:00:00 - - - - - - -
21.09.2018 12:00:00 - - - - - - -
21.09.2018 11:00:00 23,0 14,8 4 2 N 1018,3 30
21.09.2018 10:00:00 - - - - - - -
21.09.2018 09:00:00 - - - - - - -
21.09.2018 08:00:00 15,3 14,8 0 0 N 1019,2 15
21.09.2018 07:00:00 - - - - - - -
21.09.2018 06:00:00 - - - - - - -
21.09.2018 05:00:00 17,0 16,2 4 2 E 1017,9 30
21.09.2018 04:00:00 - - - - - - -
21.09.2018 03:00:00 - - - - - - -
21.09.2018 02:00:00 - - - - - - -
21.09.2018 01:00:00 - - - - - - -
21.09.2018 00:00:00 - - - - - - -
20.09.2018 23:00:00 20,6 15,2 9 5 SSE 1018,2 30
20.09.2018 22:00:00 - - - - - - -
20.09.2018 21:00:00 - - - - - - -
20.09.2018 20:00:00 25,5 13,7 9 5 S 1015,9 40
20.09.2018 19:00:00 - - - - - - -
20.09.2018 18:00:00 - - - - - - -
20.09.2018 17:00:00 30,4 9,8 5 3 N 1015,1 40
20.09.2018 16:00:00 - - - - - - -
20.09.2018 15:00:00 - - - - - - -
20.09.2018 14:00:00 28,0 14,3 8 4 NE 1017,4 30
20.09.2018 13:00:00 - - - - - - -
20.09.2018 12:00:00 - - - - - - -
20.09.2018 11:00:00 22,4 18,6 5 3 N 1019,9 20
20.09.2018 10:00:00 - - - - - - -
20.09.2018 09:00:00 - - - - - - -
20.09.2018 08:00:00 16,4 16,4 8 4 SSE 1021,0 5
20.09.2018 07:00:00 - - - - - - -
20.09.2018 06:00:00 - - - - - - -
20.09.2018 05:00:00 17,4 16,8 9 5 E 1021,0 5

tt = temperature
td = dewpoint
ff = wind speed
dd = wind direction
ppp = reduced air pressure
vv = visibility

Next stations